Debrecen, Hungary

2:53 AM CEST on May 23, 2017 (GMT +0200)
Debrecen

Weather History for LHDC - February, 2014

Change the Weather History Date:

Tuesday, February 4, 2014

  Actual Average Record
Temperature  
Mean Temperature 21 °F -  
Max Temperature 33 °F 41 °F - ()
Min Temperature 9 °F 28 °F - ()
Degree Days  
Heating Degree Days 44    
Moisture  
Dew Point 18 °F    
Average Humidity 83    
Maximum Humidity 93    
Minimum Humidity 59    
Precipitation  
Precipitation 0.00 in 0.04 in - ()
Sea Level Pressure  
Sea Level Pressure 30.29 in    
Wind  
Wind Speed 2 mph ()    
Max Wind Speed 7 mph    
Max Gust Speed -    
Visibility 1.9 miles    
Events Fog    
T = Trace of Precipitation, MM = Missing Value Source: Averaged Metar Reports

Daily Weather History Graph

Daily Weather History Graph

Search for Another Location

Airport or City:

Trip Planner

Search our weather history database for the weather conditions in past years. The results will help you decide how hot, cold, wet, or windy it might be!

Date:

Astronomy

Feb. 04, 2014 Rise Set
Actual Time 6:56 AM CET 4:39 PM CET
Civil Twilight 6:23 AM CET 5:12 PM CET
Nautical Twilight 5:46 AM CET 5:48 PM CET
Astronomical Twilight 5:11 AM CET 6:24 PM CET
Moon 8:58 AM CET (2/4) 10:41 PM CET (2/4)
Length of Visible Light 10h 48m
Length of Day
9h 43m
Waxing Crescent, 26% of the Moon is Illuminated
Feb 4
Waxing Crescent
Feb 6
First Quarter
Feb 15
Full
Feb 22
Last Quarter
Mar 1
New

Hourly Weather History & Observations

Time (CET) Temp. Windchill Dew Point Humidity Pressure Visibility Wind Dir Wind Speed Gust Speed Precip Events Conditions
12:00 AM 15 °F - 12 °F 81% 30.27 in - ENE 2.2 mph - -  
1:00 AM 16 °F - 13 °F 82% 30.27 in - Calm Calm - -  
2:00 AM 11 °F - 7 °F 77% 30.29 in - South 4.5 mph - -  
3:00 AM 9 °F - 6 °F 81% 30.29 in - Calm Calm - -  
4:00 AM 12 °F - 9 °F 82% 30.30 in - South 2.2 mph - -  
5:00 AM 14 °F - 11 °F 82% 30.30 in - SSW 2.2 mph - -  
5:15 AM 14.0 °F - 10.4 °F 86% 30.27 in 0.0 mi SSE 2.3 mph - N/A Fog Light Freezing Fog
5:45 AM 14.0 °F 8.2 °F 12.2 °F 93% 30.27 in 0.0 mi South 3.5 mph - N/A Fog Light Freezing Fog
6:00 AM 15 °F - 12 °F 82% 30.31 in 0 mi South 2.2 mph - - Fog Heavy Fog
6:00 AM - - - N/A% - 0.1 mi Variable 3.5 mph - N/A Fog Light Freezing Fog
6:15 AM 14.0 °F - 12.2 °F 93% 30.27 in 0.0 mi South 1.2 mph - N/A Fog Light Freezing Fog
6:45 AM 14.0 °F - 12.2 °F 93% 30.27 in 0.0 mi South 1.2 mph - N/A Fog Light Freezing Fog
7:00 AM 15 °F - 12 °F 81% 30.32 in 0 mi South 2.2 mph - - Fog Heavy Fog
7:15 AM 15.8 °F - 12.2 °F 86% 30.30 in 0.0 mi SSE 1.2 mph - N/A Fog Light Freezing Fog
7:45 AM 14.0 °F - 12.2 °F 93% 30.30 in 0.0 mi South 1.2 mph - N/A Fog Light Freezing Fog
8:00 AM 14 °F - 11 °F 85% 30.33 in 0 mi South 2.2 mph - - Fog Heavy Fog
8:15 AM 14.0 °F - 12.2 °F 93% 30.30 in 0.0 mi Calm Calm - N/A Fog Light Freezing Fog
8:45 AM 14.0 °F - 12.2 °F 93% 30.30 in 0.0 mi Calm Calm - N/A Fog Light Freezing Fog
8:46 AM 15.8 °F - 12.2 °F 86% 30.33 in 0.0 mi Calm Calm - N/A Fog Light Freezing Fog
9:00 AM 15 °F - 12 °F 81% 30.33 in 0 mi Calm Calm - - Fog Fog
9:00 AM - - - N/A% - 0.1 mi Variable 3.5 mph - N/A Fog Light Freezing Fog
9:15 AM 15.8 °F - 12.2 °F 86% 30.30 in 0.0 mi South 1.2 mph - N/A Fog Light Freezing Fog
9:43 AM 17.6 °F - 14.0 °F 86% 30.33 in 0.1 mi Calm Calm - N/A Fog Light Freezing Fog
9:45 AM 17.6 °F - 14.0 °F 86% 30.30 in 0.1 mi Calm Calm - N/A Fog Light Freezing Fog
10:00 AM 17 °F - 14 °F 83% 30.33 in 0 mi Calm Calm - - Fog Partial Fog
10:15 AM 19.4 °F - 17.6 °F 93% 30.30 in 0.4 mi Calm Calm - N/A Fog Light Freezing Fog
10:40 AM 23.0 °F - 21.2 °F 93% 30.33 in 0.9 mi SE 1.2 mph - N/A   Mist
10:45 AM 23.0 °F - 21.2 °F 93% 30.30 in 0.9 mi SE 1.2 mph - N/A   Mist
11:00 AM 23 °F - 21 °F 88% 30.33 in 1 mi SE 2.2 mph - - Fog Light Fog
11:15 AM 24.8 °F - 23.0 °F 93% 30.30 in 2.2 mi SE 1.2 mph - N/A   Mist
11:45 AM 26.6 °F - 24.8 °F 93% 30.30 in 2.8 mi South 1.2 mph - N/A   Mist
12:00 PM 27 °F - 25 °F 91% 30.32 in 3 mi South 2.2 mph - -   Mist
12:00 PM - - - N/A% - 1.9 mi Variable 3.5 mph - N/A   Scattered Clouds
12:15 PM 28.4 °F - 26.6 °F 93% 30.27 in 3.1 mi West 2.3 mph - N/A   Mist
12:35 PM 28.4 °F - 26.6 °F 93% 30.30 in 4.3 mi West 1.2 mph - N/A   Unknown
12:45 PM 28.4 °F - 26.6 °F 93% 30.27 in 4.3 mi WNW 2.3 mph - N/A   Unknown
1:00 PM 29 °F - 27 °F 90% 30.30 in 4 mi WNW 2.2 mph - -   Partly Cloudy
1:15 PM 32.0 °F - 26.6 °F 80% 30.27 in 4.3 mi SE 1.2 mph - N/A   Unknown
1:45 PM 32.0 °F 26.4 °F 24.8 °F 75% 30.27 in 5.0 mi West 5.8 mph - N/A   Unknown
2:00 PM 32 °F - 24 °F 63% 30.28 in 5 mi West 4.5 mph - -   Partly Cloudy
2:15 PM 33.8 °F 30.8 °F 24.8 °F 70% 30.27 in 5.0 mi West 3.5 mph - N/A   Unknown
2:45 PM 32.0 °F 26.4 °F 23.0 °F 69% 30.27 in 5.0 mi WSW 5.8 mph - N/A   Unknown
3:00 PM 32 °F - 23 °F 59% 30.28 in 5 mi WSW 6.7 mph - -   Partly Cloudy
3:15 PM 32.0 °F 27.5 °F 23.0 °F 69% 30.24 in 5.0 mi West 4.6 mph - N/A   Unknown
3:45 PM 32.0 °F 28.7 °F 23.0 °F 69% 30.24 in 5.0 mi West 3.5 mph - N/A   Unknown
4:00 PM 31 °F - 23 °F 61% 30.27 in 5 mi West 2.2 mph - -   Partly Cloudy
4:15 PM 30.2 °F 26.7 °F 21.2 °F 69% 30.24 in 5.0 mi West 3.5 mph - N/A   Unknown
4:44 PM 28.4 °F - 21.2 °F 74% 30.27 in 2.5 mi West 2.3 mph - N/A   Mist
4:45 PM 28.4 °F - 21.2 °F 74% 30.24 in 2.5 mi West 2.3 mph - N/A   Mist
5:00 PM 28 °F - 21 °F 67% 30.27 in 2 mi West 2.2 mph - -   Mist
5:00 PM - - - N/A% - - North - - N/A   Unknown
6:00 PM 23 °F - 18 °F 73% 30.27 in - ESE 2.2 mph - -  
7:00 PM 23 °F - 20 °F 84% 30.25 in - NE 2.2 mph - -  
8:00 PM 21 °F - 18 °F 86% 30.26 in - East 4.5 mph - -  
9:00 PM 20 °F - 17 °F 84% 30.26 in - NE 4.5 mph - -  
10:00 PM 20 °F - 18 °F 87% 30.25 in - East 2.2 mph - -  
11:00 PM 19 °F - 17 °F 87% 30.25 in - NE 2.2 mph - -